Location: Bodn�s
(60.3333°N, 22.1667°E)
Time: 19:49:19
(UTC+00:00)

Daily predictions for brighter satellites

Satellite Brightness Start Highest point End
(mag) Time Altitude Azimuth Time Altitude Azimuth Time Altitude Azimuth
USA 229 DEB 3.9 20:45:19 10° WSW 20:52:05 83° NNW 20:59:19 10° ENE
USA 229 3.9 20:45:26 10° WSW 20:52:11 83° NNW 20:59:24 10° ENE
ATLAS 3B R/B 2.8 20:47:32 10° WNW 20:54:17 88° NNE 21:01:13 10° ESE
CENTAUR R/B 3.2 20:47:16 10° WNW 20:54:48 71° SW 21:03:20 10° SE
Cosmos 2082 Rocket 4.0 20:50:45 10° NW 20:55:02 22° WSW 20:59:17 10° SSW
STARLINK-1199 4.5 20:51:59 10° SW 20:55:34 29° S 20:59:10 10° ESE
COSMOS 2487 3.7 20:52:44 10° NNW 20:56:00 35° NE 20:59:14 10° ESE
Okean 1 Rocket 4.3 20:53:19 10° NNW 20:57:28 37° W 21:01:34 10° SSW
NOSS 3-1 (C) 3.9 20:52:13 10° WSW 20:58:18 79° NNW 21:05:38 10° ENE
Cosmos 1758 3.6 20:56:23 10° N 21:00:24 63° ENE 21:04:26 10° SSE
STARLINK-1210 4.5 20:56:54 10° SW 21:00:30 29° S 21:04:07 10° ESE
SL-4 R/B 1.5 20:58:44 10° SE 21:00:49 38° ENE 21:02:55 10° N
NOSS 3-1 (A) 3.7 20:54:58 10° WSW 21:01:00 88° NNW 21:08:16 10° ENE
STARLINK-1212 4.2 21:01:24 10° SW 21:03:50 21° S 21:06:16 10° SE
STARLINK-1105 4.2 21:01:52 10° SW 21:04:18 21° S 21:06:43 10° SE
Cosmos 1378 3.1 21:00:41 10° S 21:04:25 86° ESE 21:08:10 10° NNE
NOSS 2-2 (E) 4.4 21:01:24 10° S 21:04:33 26° SE 21:08:15 10° ENE
EO 1 Del DPAF 3.9 21:01:27 10° NNE 21:05:02 39° E 21:08:37 10° S
STARLINK-1247 4.2 21:02:43 10° SW 21:05:10 21° S 21:07:37 10° SE
STARLINK-1219 4.5 21:01:50 10° SW 21:05:26 29° S 21:09:04 10° ESE
STARLINK-1227 4.2 21:03:12 10° SW 21:05:38 21° S 21:08:04 10° SE
STARLINK-1226 4.2 21:04:05 10° SW 21:06:32 21° S 21:08:58 10° SE
Lacrosse 4 Rocket 3.6 21:02:39 10° WNW 21:06:40 31° N 21:10:36 10° ENE
STARLINK-1215 4.2 21:04:57 10° WSW 21:07:25 21° S 21:09:52 10° SE
Cosmos 1455 Rocket 3.2 21:03:06 10° NNW 21:07:28 74° W 21:11:48 10° S
STARLINK-1234 4.3 21:05:27 10° WSW 21:08:00 21° S 21:10:34 10° SE
Cosmos 2227 Rocket 3.8 21:03:08 10° NW 21:08:22 35° NNE 21:13:35 10° E
TSX-5 4.3 21:03:25 10° SSW 21:08:30 55° SE 21:12:28 10° NE
STARLINK-1217 4.2 21:06:45 10° WSW 21:09:12 21° S 21:11:39 10° SE
STARLINK-1229 4.2 21:07:37 10° WSW 21:10:05 21° S 21:12:31 10° SE
STARLINK-1211 4.4 21:06:46 10° SW 21:10:23 30° S 21:14:01 10° ESE
STARLINK-1270 4.2 21:08:32 10° WSW 21:10:59 21° S 21:13:25 10° SE
NOSS 2-3 (C) 4.2 21:06:21 10° WSW 21:11:09 85° NNW 21:17:20 10° ENE
Cosmos 1470 2.8 21:07:40 10° NNW 21:11:36 85° ENE 21:15:29 10° SSE
SeaSat 1 3.1 21:08:03 10° NE 21:12:40 37° ESE 21:17:14 10° S
STARLINK-1189 4.3 21:10:21 10° WSW 21:12:47 21° S 21:15:14 10° SE
STARLINK-1188 4.3 21:11:14 10° WSW 21:13:40 21° S 21:16:07 10° SE
STARLINK-1235 4.3 21:11:54 10° WSW 21:14:16 20° S 21:16:38 10° SE
STARLINK-1187 4.3 21:12:21 10° WSW 21:14:44 20° S 21:17:08 10° SE
Cosmos 1025 Rocket 4.1 21:11:23 10° SSE 21:15:11 32° E 21:19:02 10° NNE
Terra 3.3 21:11:08 10° SSW 21:15:20 30° W 21:19:33 10° NNW
STARLINK-1245 4.4 21:11:43 10° WSW 21:15:21 30° S 21:18:58 10° ESE
Cosmos 1943 Rocket 2.8 21:10:28 10° S 21:15:33 38° ESE 21:20:42 10° NE
STARLINK-1191 4.3 21:13:41 10° WSW 21:16:05 21° S 21:18:30 10° SE
Cosmos 2369 Rocket 3.1 21:11:19 10° S 21:16:14 31° ESE 21:21:09 10° NE
STARLINK-1221 4.3 21:14:35 10° WSW 21:16:59 21° S 21:19:23 10° SE
STARLINK-1222 4.3 21:15:28 10° WSW 21:17:52 21° S 21:20:17 10° SE
JB-3 4.5 21:14:23 10° NNE 21:18:37 86° ESE 21:22:46 10° SSW
STARLINK-1214 4.3 21:16:24 10° WSW 21:18:48 20° S 21:21:12 10° SE
Cosmos 2084 Rocket 4.0 21:15:05 10° W 21:19:27 67° N 21:23:54 10° ENE
STARLINK-1209 4.4 21:17:42 10° WSW 21:20:12 21° S 21:22:42 10° SE
STARLINK-1233 4.4 21:16:39 10° WSW 21:20:17 30° S 21:23:55 10° ESE
GEOS 3 Rocket 4.0 21:16:13 10° ESE 21:21:28 74° NNE 21:26:50 10° WNW
Cosmos 1726 2.6 21:21:02 10° N 21:24:41 53° ENE 21:28:20 10° SSE
STARLINK-1204 4.4 21:21:36 10° WSW 21:25:14 30° S 21:28:53 10° ESE
Cosmos 1461 3.3 21:23:07 10° SSW 21:27:13 48° SE 21:31:32 10° ENE
NOSS 2-2 (C) 4.2 21:24:42 10° SSW 21:28:00 31° SE 21:31:50 10° ENE
Cosmos 371 Rocket 4.1 21:23:53 10° SW 21:28:41 57° NW 21:33:32 10° NNE
Cosmos 1092 Rocket 4.1 21:23:23 10° SSW 21:29:33 81° WNW 21:35:45 10° NNE
STARLINK-1238 4.4 21:26:33 10° WSW 21:30:11 30° S 21:33:50 10° ESE
Spot 4 4.2 21:25:50 10° S 21:30:39 61° WSW 21:35:30 10° NNW
ATLAS 2AS CENTAUR R/B 4.1 21:24:31 10° SSE 21:30:45 26° ESE 21:36:56 10° ENE
Cosmos 968 Rocket 3.7 21:27:18 10° NW 21:32:26 60° WSW 21:37:29 10° SSE
Cosmos 1503 Rocket 4.1 21:27:32 10° NW 21:32:50 75° WSW 21:38:09 10° SSE
Cosmos 2228 4.0 21:30:07 10° N 21:34:09 39° ENE 21:38:09 10° SE
STARLINK-1201 4.4 21:31:30 10° WSW 21:35:08 30° S 21:38:47 10° ESE
Cosmos 2278 Rocket 3.1 21:30:55 10° WSW 21:36:30 54° NW 21:42:07 10° NE
Cosmos 1842 3.3 21:33:20 10° SSW 21:37:15 88° W 21:41:11 10° NNE
Cosmos 2315 Rocket 4.4 21:32:52 10° N 21:39:02 60° ENE 21:45:10 10° SSE
Cosmos 1110 Rocket 4.0 21:34:11 10° SSW 21:39:23 89° WNW 21:44:37 10° NNE
STARLINK-1206 4.4 21:36:26 10° WSW 21:40:05 30° S 21:43:43 10° ESE
SJ 16-02 3.6 21:37:22 10° NNW 21:41:01 24° NE 21:44:40 10° E
Cosmos 1536 Rocket 4.1 21:37:54 10° SSE 21:42:03 46° E 21:46:15 10° NNE
Cosmos 1544 Rocket 4.1 21:39:25 10° NNW 21:43:37 49° W 21:47:48 10° S
Meteor 1-21 4.3 21:39:04 10° S 21:44:42 76° ESE 21:50:19 10° NNE
STARLINK-1205 4.4 21:41:24 10° WSW 21:45:02 30° S 21:48:40 10° ESE
Cosmos 1242 Rocket 2.7 21:41:51 10° S 21:45:29 68° ESE 21:49:10 10° NNE
Cosmos 2292 Rocket 4.3 21:42:30 10° SSE 21:45:51 28° E 21:48:43 10° NNE
ALOS 2 2.7 21:44:31 10° S 21:48:55 72° WSW 21:53:20 10° NNW
Cosmos 1354 Rocket 4.2 21:44:20 10° NW 21:49:34 65° WSW 21:54:49 10° SSE
STARLINK-1218 4.4 21:46:21 10° WSW 21:49:59 30° S 21:53:37 10° ESE
Cosmos 2058 Rocket 4.4 21:46:34 10° N 21:50:39 34° ENE 21:54:43 10° SE
Meteor 2-10 4.0 21:45:58 10° NNW 21:51:04 76° WSW 21:56:07 10° S
S3M 4.1 21:47:42 10° NNW 21:53:50 74° W 22:00:00 10° S
ATLAS CENTAUR R/B 3.6 21:52:53 10° SE 21:53:55 11° ESE 21:54:58 10° E
Aureole 3 Rocket 4.4 21:49:41 10° NNW 21:54:34 53° W 22:01:22 10° S
STARLINK-1254 4.4 21:51:18 10° WSW 21:54:55 30° S 21:58:33 10° SE
NOSS 8 (F) 4.1 21:52:12 10° SW 21:55:13 68° SSE 21:58:31 10° ENE
Cosmos 1867 4.0 21:51:02 10° WNW 21:56:17 49° SW 22:01:31 10° SSE
Aureole 3 3.1 21:53:11 10° NNW 21:57:07 78° ENE 22:00:18 10° SSE
Cosmos 1300 4.4 21:54:04 10° N 21:57:24 27° ENE 22:00:44 10° ESE
STARLINK-1231 4.4 21:56:14 10° WSW 21:59:51 29° S 22:03:28 10° SE
Cosmos 1331 Rocket 4.2 21:55:01 10° SW 22:00:12 75° NW 22:05:26 10° NNE
Aureole 2 Rocket 3.4 21:59:20 10° WSW 22:02:15 40° NW 22:05:05 10° NNE
STARLINK-1246 4.5 21:59:08 10° SW 22:02:40 28° S 22:06:14 10° ESE
Okean 2 4.3 21:58:53 10° SW 22:02:54 46° WNW 22:06:57 10° N
STARLINK-1232 4.5 22:01:12 10° WSW 22:04:49 29° S 22:08:25 10° SE
Cosmos 2219 3.8 22:00:24 10° NW 22:06:05 60° NE 22:11:41 10° ESE
Cosmos 1302 Rocket 4.1 22:01:38 10° SSW 22:06:56 81° ESE 22:12:17 10° NE
STARLINK-1224 4.5 22:04:02 10° SW 22:07:36 28° S 22:11:12 10° ESE
STARLINK-1208 4.5 22:06:10 10° WSW 22:09:45 29° S 22:13:21 10° SE
Cosmos 1606 Rocket 3.7 22:05:50 10° NNW 22:10:11 73° ENE 22:14:31 10° SSE
Cosmos 1655 Rocket 4.1 22:04:40 10° S 22:10:53 79° E 22:17:12 10° NNE
Cosmos 1271 Rocket 2.7 22:07:17 10° SSW 22:11:11 87° ESE 22:15:09 10° NNE
STARLINK-1225 4.5 22:08:58 10° SW 22:12:33 29° S 22:16:09 10° ESE
STARLINK-1271 4.5 22:11:07 10° WSW 22:14:42 28° S 22:18:17 10° SE
BREEZE-M DEB (TANK) 4.1 22:10:06 10° WSW 22:16:05 23° SSW 22:18:52 10° SE
Cosmos 2297 Rocket 2.8 22:11:21 10° NW 22:16:59 60° NE 22:22:35 10° ESE
STARLINK-1230 4.4 22:13:53 10° SW 22:17:29 29° S 22:21:06 10° ESE
STARLINK-1154 4.5 22:16:03 10° WSW 22:19:37 28° S 22:23:11 10° SE
Cosmos 1707 2.8 22:15:51 10° SSW 22:19:46 83° WNW 22:23:42 10° NNE
Cosmos 1975 Rocket 4.2 22:16:08 10° SW 22:20:20 40° WNW 22:24:31 10° N
Meteor 1-16 Rocket 4.4 22:14:46 10° NNW 22:20:23 65° W 22:25:46 10° S
STARLINK-1243 4.4 22:18:50 10° SW 22:22:26 29° S 22:26:04 10° ESE
Cosmos 1340 Rocket 3.3 22:19:15 10° NNW 22:23:10 50° W 22:27:01 10° S
USA 215 4.4 22:18:35 10° S 22:23:48 25° SW 22:29:01 10° W
NOSS 8 (H) 4.1 22:22:13 10° SW 22:25:15 75° SSE 22:28:40 10° ENE
Cosmos 1953 3.1 22:21:54 10° NNW 22:25:43 42° W 22:29:30 10° SSW
Thor Agena Rocket 4.2 22:21:33 10° NNE 22:26:46 57° WNW 22:31:56 10° SW
Cosmos 2263 Rocket 4.3 22:21:57 10° NW 22:26:59 31° NNE 22:31:59 10° ENE
Helios 1B rocket 3.8 22:23:22 10° NNE 22:27:01 29° E 22:30:40 10° SSE
STARLINK-1236 4.4 22:23:47 10° SW 22:27:24 29° S 22:31:02 10° ESE
ERBS 2.5 22:25:13 10° WSW 22:28:26 47° S 22:31:39 10° ESE
Cosmos 1674 3.3 22:25:02 10° SSE 22:28:34 45° E 22:32:13 10° NNE
Helios 1A 3.4 22:24:53 10° S 22:28:54 51° WSW 22:33:01 10° NNW
SL-4 R/B 3.2 22:29:04 10° WSW 22:30:06 12° W 22:31:07 10° WNW
COSMOS 2487 3.3 22:27:51 10° NW 22:31:05 37° WSW 22:34:08 11° S
Cosmos 1992 Rocket 4.1 22:30:21 10° SSW 22:35:30 65° ESE 22:40:42 10° NE
Cosmos 2297 4.4 22:30:28 10° WSW 22:36:07 58° NW 22:41:48 10° NE
NOSS 2-2 (D) 3.4 22:32:30 10° SW 22:36:16 71° SSE 22:40:58 10° ENE
STARLINK-1269 4.4 22:33:37 10° WSW 22:37:15 30° S 22:40:54 10° ESE
YAOGAN 11 4.4 22:33:19 10° S 22:37:32 55° WSW 22:41:48 10° NNW
Resurs 1-4 Rocket 4.4 22:34:55 10° NE 22:37:52 15° E 22:40:50 10° ESE
CZ-2D R/B 4.4 22:35:05 10° NE 22:37:53 14° E 22:40:41 10° ESE
ATLAS CENTAUR R/B 1.7 22:39:14 10° WSW 22:40:57 24° SSW 22:43:29 10° SE
STARLINK-1200 4.4 22:38:35 10° WSW 22:42:14 30° S 22:45:52 10° ESE
Cosmos 292 Rocket 3.9 22:38:40 10° SSW 22:43:32 86° NW 22:48:27 10° NNE
USA 229 DEB 4.2 22:36:41 10° W 22:43:34 70° N 22:50:55 10° E
USA 229 4.2 22:36:48 10° W 22:43:41 70° N 22:51:00 10° E
ATLAS 3B R/B 3.2 22:38:20 10° WNW 22:44:37 43° SW 22:51:04 10° SSE
COSMOS 2455 3.6 22:39:23 10° S 22:44:49 37° ESE 22:50:18 10° NE
CENTAUR R/B 4.0 22:38:05 10° WNW 22:44:50 32° WSW 22:52:10 10° S
Lacrosse 4 Rocket 2.5 22:41:49 10° NW 22:46:10 51° NNE 22:50:24 10° ESE
STARLINK-1192 4.4 22:43:32 10° WSW 22:47:11 30° S 22:50:50 10° ESE
Cosmos 2266 Rocket 4.0 22:43:21 10° SSW 22:49:28 82° WNW 22:55:33 10° NNE
NOSS 3-1 (C) 4.2 22:43:16 10° WNW 22:49:45 70° N 22:57:31 10° E
SeaSat 1 2.8 22:45:34 10° NE 22:50:29 67° NW 22:55:24 10° SW
NOSS 3-4 (A) 4.0 22:46:15 10° SSW 22:51:55 43° SE 22:58:02 10° ENE
NOSS 3-4 (C) 4.0 22:46:22 10° SSW 22:52:01 43° SE 22:58:08 10° ENE
STARLINK-1244 4.4 22:48:29 10° WSW 22:52:08 30° S 22:55:46 10° ESE
NOSS 3-1 (A) 4.2 22:46:00 10° W 22:52:25 69° N 23:00:04 10° E
Cosmos 1025 Rocket 3.8 22:48:33 10° SW 22:52:41 47° WNW 22:56:53 10° N
Cosmos 2227 Rocket 2.4 22:47:30 10° NW 22:53:14 78° NE 22:58:55 10° SE
PSLV R/B 4.3 22:49:38 10° NNE 22:54:09 49° E 22:58:31 10° S
Timation 2 Rocket 4.2 22:47:59 10° NW 22:54:18 57° WSW 23:00:18 10° SSE
NOSS 2-2 (E) 3.6 22:50:38 10° WSW 22:54:33 90° N 22:59:35 10° ENE
SL-4 R/B 3.9 22:53:01 10° SSW 22:56:15 18° SSE 22:59:26 10° ESE
Cosmos 1908 3.9 22:53:01 10° NNW 22:56:40 43° W 23:00:15 10° SSW
STARLINK-1138 4.4 22:53:25 10° WSW 22:57:03 30° S 23:00:42 10° ESE
Cosmos 1726 Rocket 3.8 22:52:51 10° NNW 22:57:08 58° W 23:01:22 10° S
Cosmos 1892 Rocket 4.0 22:52:52 10° S 22:57:09 53° E 23:01:26 10° NNE
Cosmos 1943 Rocket 2.5 22:53:31 10° SW 22:59:04 69° NW 23:04:44 10° NE
Cosmos 2084 Rocket 3.9 22:54:53 10° WNW 22:59:17 70° NNE 23:03:46 10° E
Cosmos 1726 3.8 22:56:41 10° NW 22:59:39 23° W 23:02:36 10° SW
GEOS 3 Rocket 3.9 22:54:38 10° SSE 22:59:44 52° SW 23:04:58 10° WNW
Cosmos 2369 Rocket 2.3 22:54:09 10° SW 22:59:51 81° NW 23:05:32 10° NE
STARLINK-1143 4.4 22:58:21 10° WSW 23:01:59 30° S 23:05:38 10° ESE
Meteor 2-10 Rocket 4.5 22:58:08 10° NNW 23:03:23 47° ENE 23:08:23 10° SE
Cosmos 1777 Rocket 4.5 23:00:31 10° NW 23:05:29 45° WSW 23:10:28 10° S
Cosmos 1461 3.6 23:02:00 10° WSW 23:06:19 64° NNW 23:10:51 10° ENE
STARLINK-1241 4.4 23:03:19 10° WSW 23:06:57 30° S 23:10:36 10° ESE
SL-16 R/B 3.0 23:02:36 10° SE 23:08:40 63° ENE 23:14:47 10° NNW
STARLINK-1203 4.4 23:05:22 10° WSW 23:09:04 30° S 23:12:46 10° ESE
Cosmos 2228 3.8 23:07:46 10° NNW 23:11:45 38° W 23:15:41 10° SSW
STARLINK-1239 4.4 23:08:14 10° WSW 23:11:52 30° S 23:15:30 10° ESE
Landsat 4 3.9 23:09:35 10° NNE 23:13:19 68° WNW 23:17:00 10° SSW
Meteor 1-24 Rocket 3.9 23:11:35 10° S 23:16:50 62° E 23:22:17 10° NNE
STARLINK-1240 4.4 23:13:13 10° WSW 23:16:51 29° S 23:20:28 10° SE
KORONAS-FOTON 3.9 23:13:24 10° SSW 23:17:14 73° WNW 23:21:06 10° NNE
NOSS 2-2 (C) 3.6 23:14:16 10° WSW 23:18:09 82° NNW 23:23:07 10° ENE
UNK 4.4 23:14:49 10° SE 23:19:20 56° ENE 23:23:51 10° NNW
SJ 16-02 1.5 23:15:49 10° NNW 23:20:17 81° ENE 23:24:44 10° SSE
ATLAS 2AS CENTAUR R/B 3.2 23:12:46 10° SW 23:20:39 63° SE 23:28:20 10° ENE
Cosmos 2278 Rocket 4.3 23:16:43 10° WNW 23:21:44 30° NNW 23:26:45 10° NE
STARLINK-1216 4.4 23:18:09 10° WSW 23:21:46 29° S 23:25:23 10° SE
Cosmos 921 Rocket 3.9 23:22:18 10° S 23:26:19 40° ESE 23:30:25 10° NE
STARLINK-1237 4.5 23:23:07 10° WSW 23:26:43 29° S 23:30:19 10° SE
Cosmos 2058 Rocket 3.6 23:24:33 10° NNW 23:28:48 47° W 23:33:04 10° SSW
Cosmos 2292 Rocket 4.3 23:26:32 10° SW 23:29:59 32° WNW 23:32:54 10° N
STARLINK-1202 4.5 23:28:05 10° WSW 23:31:41 29° S 23:35:16 10° SE
ATLAS CENTAUR R/B 2.0 23:27:56 10° SSW 23:31:59 42° SE 23:35:47 10° ENE
MOZ.5/SAFIR/RUBIN 5/SL-8 3.9 23:27:54 10° SSE 23:32:33 84° ENE 23:37:14 10° NNW
Cosmos 1626 2.2 23:29:08 10° S 23:32:51 78° ESE 23:36:36 10° NNE
Cosmos 1437 3.3 23:30:03 10° S 23:32:55 44° E 23:35:50 10° NNE
Cosmos 1300 3.2 23:29:34 10° NNW 23:33:17 48° W 23:36:58 10° S
Cosmos 1656 Rocket 3.8 23:31:33 10° SW 23:37:12 80° NW 23:42:48 10° NE
DELTA 2 DEB (DPAF) 4.2 23:34:31 10° SSE 23:38:59 74° WSW 23:43:29 10° NNW
RESURS DK-1 3.1 23:38:03 10° SSW 23:41:59 43° ESE 23:45:56 10° NE
Meteor 2-5 Rocket 3.8 23:36:43 10° SSW 23:42:17 78° WNW 23:47:58 10° NNE
Cosmos 2285 Rocket 4.2 23:37:34 10° NNW 23:44:01 81° NE 23:50:24 10° SE
CZ-4 R/B 4.0 23:40:34 10° NNE 23:45:26 72° WNW 23:50:10 10° SSW
Cosmos 1626 Rocket 3.9 23:43:04 10° S 23:47:19 60° E 23:51:38 10° NNE
CZ-4C R/B 3.6 23:43:15 10° SSE 23:47:34 83° WSW 23:52:03 10° NNW
Cosmos 2219 3.6 23:44:47 10° NW 23:50:12 46° WSW 23:55:33 10° S
Cosmos 1356 Rocket 3.8 23:46:46 10° NNW 23:50:46 50° W 23:54:50 10° S
Okean 1-7 Rocket 3.8 23:49:34 10° SSW 23:54:03 68° WNW 23:58:36 10° N
